Overview Statistics Trail Chart Weather Telemetry Raw packets
 

This is the latest recevied weather packets stored in our database for station/object KD4EED. If no packets are shown the sender has not sent any weather packets the latest 10 day(s).

<< 29 30 31 32 33 34 35 >>
Time Temp. Humidity Pressure Rain* Wind** Luminosity Snow
1788483009 28.33° C 51% 1009.1 hPa - - 85 W/m² -
1788482705 28.33° C 52% 1009.1 hPa - - 92 W/m² -
1788482404 27.78° C 53% 1009.1 hPa - - 99 W/m² -
1788482100 27.78° C 53% 1009.2 hPa - - 108 W/m² -
1788481795 27.78° C 51% 1009.2 hPa - - 118 W/m² -
1788481493 28.33° C 52% 1009.1 hPa - - 138 W/m² -
1788481191 28.33° C 52% 1009.3 hPa - - 162 W/m² -
1788480888 28.33° C 52% 1009.2 hPa - - 185 W/m² -
1788480586 27.78° C 54% 1009.4 hPa - - 201 W/m² -
1788480286 27.78° C 55% 1009.4 hPa - - 210 W/m² -
1788479982 27.78° C 54% 1009.5 hPa - - 215 W/m² -
1788479678 27.78° C 53% 1009.4 hPa - - 229 W/m² -
1788479371 28.33° C 52% 1009.5 hPa - - 246 W/m² -
1788479067 27.78° C 53% 1009.2 hPa - - 264 W/m² -
1788478764 27.78° C 53% 1009.4 hPa - - 282 W/m² -
1788478460 27.78° C 55% 1009.6 hPa - - 299 W/m² -
1788478174 27.78° C 54% 1009.6 hPa - - 314 W/m² -
1788477855 27.78° C 55% 1009.6 hPa - - 328 W/m² -
1788477554 28.33° C 53% 1009.6 hPa - - 344 W/m² -
1788477249 27.78° C 53% 1009.8 hPa - - 355 W/m² -
1788476944 27.78° C 54% 1009.5 hPa - - 370 W/m² -
1788476639 27.78° C 55% 1009.6 hPa - - 379 W/m² -
1788476336 27.22° C 55% 1009.7 hPa - - 388 W/m² -
1788476031 27.78° C 55% 1009.8 hPa - - 393 W/m² -
1788475728 27.78° C 54% 1009.8 hPa - - 397 W/m² -

* Rain since midnight (hover to see other rain measurements)
** Current wind speed in m/s (hover to see current wind gust speed)